Regional Weather Roundup
Issued by NWS

Home | Current Version | Previous Version | Graphics & Text | Print | Product List | Glossary On
Versions: 1 2 3 4 5 6 7 8 9 10 11 12 13 14 15 16 17 18 19 20 21 22 23 24 25 26 27 28 29 30 31 32 33 34 35 36 37 38 39 40 41 42 43 44 45 46 47 48 49 50
000
ASUS43 KLOT 090008
RWRIL

ILLINOIS REGIONAL WEATHER ROUNDUP
NATIONAL WEATHER SERVICE CHICAGO/ROMEOVILLE IL
600 PM CST MON FEB 08 2016

NOTE: "FAIR" INDICATES FEW OR NO CLOUDS BELOW 12,000 FEET WITH NO
SIGNIFICANT WEATHER AND/OR OBSTRUCTIONS TO VISIBILITY.

* THESE STATIONS ARE NOT UNDER NWS QUALITY CONTROL. THEY ALSO MAY NOT
  REPORT WEATHER SUCH AS PRECIPITATION OR FOG.

ILZ001-002-007-009-015-016-024-090100-
NORTHWEST ILLINOIS

CITY           SKY/WX    TMP DP  RH WIND       PRES   REMARKS
MOLINE         CLOUDY    19  10  68 NW21G31   29.88R WCI   3
6HR MIN TEMP:  19; 6HR MAX TEMP:  22; 6HR PCP: TRACE;

STERLING*      CLOUDY    21  12  68 W16G23    29.80R WCI   7
SAVANNA*       CLOUDY    22  13  69 W12G18    29.84R WCI  10
$$

ILZ003-004-008-010-011-017-018-090100-
NORTH CENTRAL ILLINOIS

CITY           SKY/WX    TMP DP  RH WIND       PRES   REMARKS
ROCKFORD       CLOUDY    24  16  71 NW16G23   29.80R WCI  11
6HR MIN TEMP:  24; 6HR MAX TEMP:  27;

FREEPORT*      CLOUDY    22  13  71 NW18G25   29.82R WCI   7
ROCHELLE*      CLOUDY    23  17  77 NW13G18   29.80R WCI  12
DE KALB*       CLOUDY    24  18  77 NW20      29.76S WCI  10
$$

ILZ005-006-012>014-019>023-090100-
NORTHEAST ILLINOIS

CITY           SKY/WX    TMP DP  RH WIND       PRES   REMARKS
CHICAGO-OHARE  CLOUDY    27  19  72 W12       29.73R WCI  17
6HR MIN TEMP:  27; 6HR MAX TEMP:  28; 6HR PCP: TRACE;

CHICAGO-MIDWAY CLOUDY    28  18  66 W12       29.74R WCI  18
6HR MIN TEMP:  28; 6HR MAX TEMP:  31;

AURORA         CLOUDY    26  18  71 W20G25    29.77R WCI  12
6HR MIN TEMP:  26; 6HR MAX TEMP:  28;

LANSING*       CLOUDY    28  22  76 W9        29.74S WCI  19
WAUKEGAN       CLOUDY    26  19  74 NW10G18   29.72R WCI  16
6HR MIN TEMP:  26; 6HR MAX TEMP:  29; 6HR PCP: TRACE;

DUPAGE AIRPORT CLOUDY    26  18  71 NW13      29.74R WCI  15
6HR MIN TEMP:  26; 6HR MAX TEMP:  27;

WHEELING       LGT SNOW  26  21  81 NW13      29.75R WCI  15
6HR MIN TEMP:  26; 6HR MAX TEMP:  29; 6HR PCP: TRACE;

MORRIS*        CLOUDY    26  19  75 NW18G24   29.76R WCI  12
NORTHERLY ISL    N/A     28  20  71 W6          N/A  WCI  22
$$

LMZ740>746-090100-
SOUTHERN LAKE MICHIGAN

STATION/POSITION SKY/WX   TEMP    WIND        PRES    VSBY  WAVE
                          AIR SEA DIR/SP/G                  HT/PER
                          (F)     (DEG/KT/KT) (MB)    (MI)  (FT/S)
HARRISON CRIB              29     280/ 13/ 15   N/A
BURNHAM HARBOR             28     270/  9/ 15   N/A
CALUMET HARBOR             28     280/  5/ 12 1006.2R
BURNS HARBOR               29     290/ 12/ 14 1007.1R
MICHIGAN CITY              29     240/ 17/ 19   N/A
$$

ILZ025>027-034>036-040-047-049-050-058-095>099-090100-
WEST-CENTRAL ILLINOIS

CITY           SKY/WX    TMP DP  RH WIND       PRES   REMARKS
QUINCY         CLOUDY    19  11  70 NW18      29.95R WCI   4
GALESBURG*     CLOUDY    18  12  77 W21G30    29.88S WCI   2
MACOMB*        CLOUDY    19  13  79 NW28G33   29.93S WCI   0
JACKSONVILLE*  FLURRIES  22  16  75 NW15G25   29.92R WCI   9
PITTSFIELD*    FLURRIES  21  13  72 NW15G23   29.95S WCI   8
$$

ILZ028>032-037-038-041>044-048-051>054-059>061-090100-
CENTRAL ILLINOIS

CITY           SKY/WX    TMP DP  RH WIND       PRES   REMARKS
PONTIAC        FLURRIES  24  20  85 W18       29.82R WCI  10
BLOOMINGTON    LGT SNOW  20  16  84 NW20      29.84R FOG     WCI   5
DECATUR        FLURRIES  21  13  71 W17G24    29.86S WCI   7
PEORIA         LGT SNOW  20  13  74 NW15      29.87S WCI   6
6HR MIN TEMP:  20; 6HR MAX TEMP:  22; 6HR PCP: TRACE;

LACON*         CLOUDY    21  14  75 W12G18    29.85R WCI   9
LINCOLN*       FLURRIES  21  15  78 NW14G20   29.88R WCI   8
SPRINGFIELD    LGT SNOW  21  16  81 W15       29.90S WCI   8
6HR MIN TEMP:  21; 6HR MAX TEMP:  23; 6HR PCP: TRACE;

TAYLORVILLE    FLURRIES  21  14  73 NW16G25   29.90R WCI   7
$$

ILZ033-039-045-046-055>057-062-063-090100-
EAST-CENTRAL ILLINOIS

CITY           SKY/WX    TMP DP  RH WIND       PRES   REMARKS
CHAMPAIGN      LGT SNOW  21  17  84 W17       29.83R FOG     WCI   7
RANTOUL*       FLURRIES  24  18  78 W17       29.82R WCI  10
MATTOON        LGT SNOW  20  16  84 W20       29.85R FOG     WCI   4
$$

ILZ079-100>102-090100-
SOUTHWEST ILLINOIS

CITY           SKY/WX    TMP DP  RH WIND       PRES   REMARKS
ALTON          LGT SNOW  21  18  86 W15G21    29.95R WCI   8
BELLEVILLE     FLURRIES  25  18  74 NW14G26   29.93R WCI  13
CAHOKIA*       LGT SNOW  25  17  72 NW17      29.96R WCI  12
SPARTA*        FLURRIES  24  19  80 NW9       29.96R WCI  14
$$

ILZ064>066-069>071-074>076-080>082-084>086-088>090-092>094-090100-
SOUTH-CENTRAL ILLINOIS

CITY           SKY/WX    TMP DP  RH WIND       PRES   REMARKS
CARBONDALE     FLURRIES  25  18  74 NW9       29.95R WCI  15
6HR MIN TEMP:  25; 6HR MAX TEMP:  34; 6HR PCP: TRACE;

CAIRO*         CLOUDY    31  21  65 NW15      29.95R WCI  20
EFFINGHAM*     LGT SNOW  22  19  89 W15       29.91R WCI   8
MARION         FLURRIES  27  19  74 NW17      29.95R WCI  14
MT. VERNON     CLOUDY    23  12  63 W7        29.93R WCI  15
CENTRALIA*     LGT SNOW  24  20  83 W16G22    29.92R WCI  11
SALEM*         LGT SNOW  24  17  73 NW16G23   29.91R WCI  11
METROPOLIS*    MIX PCPN  30  21  67 NW13G20   29.94R WCI  20
$$

ILZ067-068-072-073-078-083-087-091-090100-
SOUTHEAST ILLINOIS

CITY           SKY/WX    TMP DP  RH WIND       PRES   REMARKS
LAWRENCEVILLE  LGT SNOW  22  17  81 NW18      29.89R WCI   7
FLORA*         CLOUDY    24  16  71 NW15      29.92R WCI  11
FAIRFIELD*     FLURRIES  24  18  78 W10G18    29.91R WCI  13
HARRISBURG*    LGT SNOW  26  21  79 NW12G20   29.93R WCI  16
ROBINSON*      LGT SNOW  21  19  91 W10       29.88R WCI  10
CARMI*         LGT SNOW  24  21  88 NW15      29.91R WCI  11
$$

ABBREVIATIONS USED IN REMARKS
   TC - TEMPERATURE IN CELSIUS
  WCI - WIND CHILL INDEX
   HX - HEAT INDEX
  VSB - VISIBILITY
$$




USA.gov is the U.S. government's official web portal to all federal, state and local government web resources and services.